Flag for U.S.A. Weather past 2 weeks in Ann Arbor, Michigan, U.S.A.

Now
62 °F

Mostly cloudy.


Feels Like: 62 °F
Forecast: 62 / 78 °F
Wind: No wind

Location: Ann Arbor Municipal Airport

Current Time: Jul 14, 2014 at 2:24:19 AM

Latest Report: Jul 14, 2014 at 1:53 AM


Visibility: 10 mi

Pressure: 29.86 "Hg

Humidity: 90%

Dew point: 59 °F

Location of Ann ArborLocation

Historic Weather in Ann Arbor — Graph

°F

Ann Arbor temperature yesterday

Maximum temperature yesterday: 83 °F (at 3:53 PM)
Minimum temperature yesterday: 61 °F (at 11:53 PM)
Average temperature yesterday: 75 °F

Past Weeks' High & Low Weather Summary

 TemperatureHumidityPressure
High85 °F (Jun 29, 3:53 PM)97% (Jul 5, 5:53 AM)30.30 "Hg (Jul 5, 5:53 AM)
Low45 °F (Jul 5, 5:53 AM)32% (Jul 4, 5:53 PM)29.56 "Hg (Jul 1, 4:53 AM)
Average70 °F72%29.94 "Hg
* Reported Jun 29 12:53 AM — Jul 14 12:53 AM, Ann Arbor, Weather by CustomWeather, © 2014

Note: Actual official high and low records may vary slightly from our data, if they occured in-between our weather recording intervals... More about our weather records

Advertising

Ann Arbor weather history for previous 24 hours

 ConditionsComfort  
Time TempWeatherWind HumidityBarometerVisibility
12:53 AM
Jul 14
59 °FClear.No wind90%29.88 "Hg10 mi
11:53 PM
Jul 13
61 °FClear.No wind90%29.89 "Hg10 mi
10:53 PM62 °FClear.3 mph86%29.89 "Hg10 mi
9:53 PM65 °FSunny.3 mph81%29.89 "Hg10 mi
8:53 PM71 °FSunny.No wind71%29.88 "Hg10 mi
7:53 PM79 °FSunny.5 mph47%29.87 "Hg10 mi
6:53 PM80 °FSunny.12 mph45%29.85 "Hg10 mi
5:53 PM82 °FPassing clouds.13 mph46%29.85 "Hg10 mi
4:53 PM83 °FScattered clouds.14 mph51%29.84 "Hg10 mi
3:53 PM83 °FScattered clouds.15 mph51%29.85 "Hg10 mi
2:53 PM81 °FPassing clouds.9 mph58%29.87 "Hg10 mi
1:53 PM80 °FSunny.10 mph58%29.87 "Hg10 mi
12:53 PM78 °FSunny.14 mph56%29.87 "Hg10 mi
11:53 AM77 °FSunny.10 mph66%29.87 "Hg10 mi
10:53 AM76 °FScattered clouds.15 mph72%29.85 "Hg10 mi
10:03 AM75 °FBroken clouds.15 mph79%29.87 "Hg10 mi
9:53 AM74 °FBroken clouds.14 mph82%29.85 "Hg10 mi
8:53 AM72 °FCloudy.9 mph87%29.83 "Hg10 mi
7:53 AM72 °FLight rain. Mostly cloudy.10 mph84%29.81 "Hg7 mi
6:53 AM72 °FFog.7 mph91%29.81 "Hg2 mi
5:53 AM73 °FFog.9 mph88%29.81 "Hg5 mi
4:53 AM73 °FLight rain. Fog.9 mph88%29.81 "Hg5 mi
3:53 AM72 °FLight rain. Fog.7 mph91%29.82 "Hg6 mi
2:53 AM73 °FMostly cloudy.8 mph81%29.85 "Hg10 mi
Weather by CustomWeather, © 2014

See weather overviewHow to use our weather pages